Вернуться в каталог

SL-8 R/B

АктивенLEO
NORAD 7665·ROCKET BODY·🇷🇺 Russia

Запущен Feb 12, 1975 с Plesetsk Cosmodrome

Loading…

Ближайшие Пролёты (ближайшие 24 часа)

TLE

СвежийSource: Space-Track

Эпоха: Sep 14, 2026, 11:44 UTC

1 07665U 75012B   26257.48913374 -.00000021  00000-0  10279-3 0  9996
2 07665  69.2293 162.6459 0021632 332.8356 200.2419 12.70482945392356

Отслеживайте SL-8 R/B в реальном времени с AllMySat

Download on the App Store